KBJCKMYL

Guest
Details From KBJC - Jeffco
To KMYL - Mc Call Muni
Flight Number -
Tags Decoded
Created
Modified
Stats Distance 578 nm / 1,071 km
Max Altitude 0 ft / 0 m
Waypoints 4
Social Downloads 1
Likes 0
Share VATSIM

Download

Looking for another format? Having issues loading an existing format? Contact us
Advertisement - Login to hide

Notes

Decoded

Route

KBJC OTAYI KU90K KMYL

ID Type Via Altitude Latitude Longitude Leg Dist Tot Dist Heading (true) Name
O KBJC APT - 0 ft / 0 m 39.90587˚ -105.11809˚ - 0 nm - Rocky Mountain Metropolitan Airport
OTAYI FIX - 0 ft / 0 m 42.27800˚ -110.00283˚ 262 nm 262 nm 304° / 301° -
KU90K FIX - 0 ft / 0 m 45.00000˚ -116.00000˚ 307 nm 570 nm 304° / 300° -
O KMYL APT - 0 ft / 0 m 44.89702˚ -116.10202˚ 7 nm 578 nm 215° / 215° -

Altitude Profile

Advertisement - Login to hide

Weather


0- 5 10 15 20 25 30 35+ Temperature / ° C

Clouds and Precipitation
Forecast for 2018-05-22 06:00 UTC. Updated 2 hours ago

Ground ~20,000 ft ~40,000 ft Winds

KBJC

Details ICAO KBJC (BJC)
Name Rocky Mountain Metropolitan Airport
Region United States
Timezone America/Denver (UTC-6.0)
Stats Elevation 5,670 ft / 1,728 m (AMSL)
Location 39.909018° -105.116968°
Runways 3
Magnetic Variation 8.253° E

METAR

KBJC 220653Z AUTO 33012KT 10SM CLR 15/07 A2999 RMK AO2

Decode

TAF

KBJC 220536Z 2206/2306 04007KT P6SM SCT140 BKN220 FM220800 32007KT P6SM FEW150 BKN220 FM221400 VRB05KT P6SM FEW140 SCT200 FM222100 12010KT P6SM SCT100 BKN200 FM230300 VRB05KT P6SM FEW100

Decode

Departure Runways

ID Width Length Bearing (true) Bearing (mag) Surface Threshold Offset Overrun Length
02 75 ft / 23 m 3,601 ft / 1,098 m 34.18° 25.93° Asphalt 0 ft / 0 m 0 ft / 0 m
11L 100 ft / 30 m 8,990 ft / 2,740 m 124.39° 116.14° Asphalt 0 ft / 0 m 0 ft / 0 m
11R 75 ft / 23 m 6,995 ft / 2,132 m 124.39° 116.14° Asphalt 0 ft / 0 m 0 ft / 0 m
20 75 ft / 23 m 3,601 ft / 1,098 m 214.18° 205.93° Asphalt 0 ft / 0 m 0 ft / 0 m
29L 75 ft / 23 m 6,995 ft / 2,132 m 304.40° 296.15° Asphalt 0 ft / 0 m 0 ft / 0 m
29R 100 ft / 30 m 8,990 ft / 2,740 m 304.41° 296.16° Asphalt 0 ft / 0 m 0 ft / 0 m

KMYL

Details ICAO KMYL (MYL)
Name Mc Call Muni
Region United States
Timezone America/Boise (UTC-6.0)
Stats Elevation 5,020 ft / 1,530 m (AMSL)
Location 44.888738° -116.101747°
Runways 1
Magnetic Variation 13.532° E

METAR

KMYL 220651Z AUTO 02007KT 10SM CLR 12/08 A2998 RMK AO2 SLP122 T01220078 402000094

Decode

TAF

TAF KMYL 220520Z 2206/2306 36006KT P6SM SCT120 FM222000 34006KT P6SM VCTS SCT060CB BKN120 FM230300 03005KT P6SM VCSH BKN060

Decode

Destination Runways

ID Width Length Bearing (true) Bearing (mag) Surface Threshold Offset Overrun Length
16 75 ft / 23 m 6,113 ft / 1,863 m 178.61° 165.08° Asphalt 0 ft / 0 m 56 ft / 17 m
34 75 ft / 23 m 6,113 ft / 1,863 m 358.61° 345.08° Asphalt 0 ft / 0 m 0 ft / 0 m

Popular Alternatives